GFSNIL_prec_precacc_228.txt.gz
Total_Precipitation_Accumulation
0.35 0.31 0.33 0.31 0.34 0.34 0.78 1.42 2.07 1.73 1.60 1.83 1.65 2.01 2.25 2.27 2.39 2.40 2.35 2.28 2.06 1.89
0.69 0.65 0.65 0.75 0.94 1.04 1.27 1.68 2.56 3.28 3.01 2.83 2.96 2.52 2.74 2.85 2.64 2.68 2.54 2.10 2.29 2.21
0.86 0.81 0.72 0.91 1.47 1.87 1.48 1.85 1.98 2.60 3.46 3.62 3.48 3.49 3.23 3.13 2.70 2.57 2.39 2.17 2.07 1.94
1.51 1.78 1.66 1.50 2.00 2.29 1.97 2.13 2.81 2.72 2.77 3.19 3.20 3.74 3.85 3.41 3.14 2.91 2.63 2.26 2.04 1.69
1.32 1.88 2.38 2.56 2.70 3.37 3.75 3.12 3.23 3.13 2.49 2.29 2.33 2.61 3.48 3.36 2.81 2.63 2.33 1.96 1.78 1.67
2.07 2.02 2.29 2.31 2.29 2.50 2.96 2.69 3.00 2.94 2.75 2.40 2.24 2.34 2.40 3.05 3.04 2.38 2.18 2.05 1.91 1.76
1.51 1.90 2.11 2.38 2.55 3.12 3.11 3.27 3.44 3.65 2.62 2.16 2.00 1.82 1.72 1.75 2.25 2.55 2.16 2.20 2.22 2.05
1.11 1.31 1.36 1.51 1.77 2.03 2.47 2.86 3.40 3.57 3.11 2.36 2.18 2.04 1.74 1.60 1.56 1.95 2.38 2.27 2.18 2.17
0.89 0.91 1.01 1.03 1.12 1.15 1.23 1.29 1.62 2.24 2.93 2.92 2.37 2.60 2.29 1.94 1.73 1.73 2.02 2.71 2.53 2.17
0.77 0.87 0.70 0.71 0.75 0.78 0.89 1.18 1.20 1.16 1.46 2.03 2.18 3.03 2.97 2.89 1.87 1.82 1.88 1.99 2.61 2.48
0.61 0.47 0.47 0.50 0.62 0.67 0.85 0.91 0.93 1.07 1.05 1.17 1.40 2.02 2.31 3.41 3.19 2.19 1.95 2.10 2.05 2.32
0.72 0.77 0.84 0.64 0.60 0.62 0.71 0.84 0.81 0.73 0.73 0.76 0.73 1.10 1.37 1.81 2.34 2.80 2.71 2.00 1.90 1.92
1.17 1.05 0.94 0.81 0.71 0.69 0.62 0.66 0.67 0.83 0.98 1.02 0.69 1.03 1.05 1.55 1.70 1.84 2.14 2.76 2.23 2.26
1.29 1.26 1.12 0.84 0.61 0.58 0.72 0.83 0.87 0.85 0.84 0.82 0.89 1.03 1.21 1.25 1.49 2.03 1.91 1.71 1.95 1.89

GFSNIL_prec_precacc_231.txt.gz
Total_Precipitation_Accumulation
0.38 0.32 0.35 0.32 0.35 0.35 0.78 1.42 2.07 1.73 1.60 1.83 1.65 2.01 2.25 2.27 2.39 2.40 2.35 2.28 2.06 1.89
0.73 0.66 0.67 0.76 0.94 1.04 1.27 1.68 2.56 3.28 3.01 2.83 2.96 2.52 2.74 2.85 2.64 2.68 2.54 2.10 2.29 2.21
0.90 0.82 0.73 0.92 1.47 1.87 1.48 1.85 1.98 2.60 3.46 3.62 3.48 3.49 3.23 3.13 2.70 2.57 2.39 2.17 2.07 1.94
1.52 1.79 1.66 1.50 2.00 2.29 1.97 2.13 2.81 2.72 2.77 3.19 3.20 3.74 3.85 3.41 3.14 2.91 2.63 2.26 2.04 1.69
1.32 1.88 2.38 2.56 2.70 3.37 3.75 3.12 3.23 3.13 2.49 2.29 2.33 2.61 3.48 3.36 2.81 2.63 2.33 1.96 1.78 1.67
2.07 2.02 2.29 2.31 2.29 2.50 2.96 2.69 3.00 2.94 2.75 2.40 2.24 2.34 2.40 3.05 3.04 2.38 2.18 2.05 1.91 1.76
1.51 1.90 2.11 2.38 2.55 3.12 3.11 3.27 3.44 3.65 2.62 2.16 2.00 1.82 1.72 1.75 2.25 2.55 2.16 2.20 2.22 2.05
1.11 1.31 1.36 1.51 1.77 2.03 2.47 2.86 3.40 3.57 3.11 2.36 2.18 2.04 1.74 1.60 1.56 1.95 2.38 2.27 2.18 2.17
0.89 0.91 1.01 1.03 1.12 1.15 1.23 1.29 1.62 2.24 2.93 2.92 2.37 2.60 2.29 1.94 1.73 1.73 2.02 2.71 2.53 2.17
0.77 0.87 0.70 0.71 0.75 0.78 0.89 1.18 1.20 1.16 1.46 2.03 2.18 3.03 2.97 2.89 1.87 1.82 1.88 1.99 2.61 2.48
0.61 0.47 0.47 0.50 0.62 0.67 0.85 0.91 0.93 1.07 1.05 1.17 1.40 2.02 2.31 3.41 3.19 2.19 1.95 2.10 2.05 2.32
0.72 0.77 0.84 0.64 0.60 0.62 0.71 0.84 0.81 0.73 0.73 0.76 0.73 1.10 1.37 1.81 2.34 2.80 2.71 2.00 1.90 1.92
1.17 1.05 0.94 0.81 0.71 0.69 0.62 0.66 0.67 0.83 0.98 1.02 0.69 1.03 1.05 1.55 1.70 1.84 2.14 2.76 2.23 2.26
1.29 1.26 1.12 0.84 0.61 0.58 0.72 0.83 0.87 0.85 0.84 0.82 0.89 1.03 1.21 1.25 1.49 2.03 1.91 1.71 1.95 1.89

GFSNIL_prec_precacc_237.txt.gz
Total_Precipitation_Accumulation
0.41 0.35 0.37 0.42 0.54 0.51 0.92 1.53 2.10 1.75 1.61 1.83 1.65 2.01 2.25 2.27 2.39 2.40 2.35 2.28 2.06 1.89
0.74 0.68 0.71 0.91 1.07 1.12 1.34 1.73 2.62 3.31 3.03 2.84 2.96 2.52 2.74 2.85 2.64 2.68 2.54 2.10 2.29 2.21
0.93 0.85 0.79 1.01 1.56 1.92 1.53 1.89 2.01 2.61 3.46 3.62 3.48 3.49 3.23 3.13 2.70 2.57 2.39 2.17 2.07 1.94
1.54 1.81 1.71 1.61 2.05 2.31 1.99 2.13 2.81 2.72 2.77 3.19 3.20 3.74 3.85 3.41 3.14 2.91 2.63 2.26 2.04 1.69
1.35 1.90 2.42 2.61 2.74 3.39 3.76 3.12 3.23 3.13 2.49 2.29 2.33 2.61 3.48 3.36 2.81 2.63 2.33 1.96 1.78 1.67
2.10 2.03 2.30 2.34 2.30 2.50 2.96 2.69 3.00 2.94 2.75 2.40 2.24 2.34 2.40 3.05 3.04 2.38 2.18 2.05 1.91 1.76
1.53 1.93 2.16 2.42 2.58 3.13 3.11 3.27 3.44 3.65 2.62 2.16 2.00 1.82 1.72 1.75 2.25 2.55 2.16 2.20 2.22 2.05
1.12 1.33 1.38 1.52 1.78 2.03 2.47 2.86 3.40 3.57 3.11 2.36 2.18 2.04 1.74 1.60 1.56 1.95 2.38 2.27 2.18 2.17
0.90 0.93 1.02 1.03 1.12 1.15 1.23 1.29 1.62 2.24 2.93 2.92 2.37 2.60 2.29 1.94 1.73 1.73 2.02 2.71 2.53 2.17
0.78 0.88 0.71 0.72 0.75 0.78 0.89 1.18 1.20 1.16 1.46 2.03 2.18 3.03 2.97 2.89 1.87 1.82 1.88 1.99 2.61 2.49
0.61 0.47 0.47 0.50 0.62 0.67 0.85 0.91 0.93 1.07 1.05 1.17 1.40 2.02 2.31 3.41 3.19 2.19 1.95 2.11 2.05 2.32
0.72 0.77 0.84 0.64 0.60 0.62 0.71 0.84 0.81 0.73 0.73 0.76 0.73 1.10 1.37 1.81 2.34 2.80 2.71 2.00 1.90 1.92
1.18 1.05 0.94 0.81 0.71 0.69 0.62 0.67 0.67 0.83 0.98 1.02 0.69 1.03 1.05 1.55 1.70 1.84 2.14 2.76 2.23 2.26
1.30 1.27 1.12 0.84 0.61 0.58 0.72 0.83 0.87 0.85 0.84 0.82 0.89 1.03 1.21 1.25 1.49 2.03 1.91 1.71 1.95 1.89

GFSNIL_prec_precacc_240.txt.gz
Total_Precipitation_Accumulation
0.41 0.35 0.37 0.42 0.54 0.51 0.92 1.53 2.11 1.75 1.61 1.83 1.68 2.04 2.27 2.27 2.39 2.40 2.35 2.28 2.06 1.89
0.74 0.68 0.71 0.91 1.07 1.14 1.34 1.73 2.63 3.32 3.03 2.88 3.02 2.55 2.74 2.85 2.64 2.68 2.54 2.10 2.29 2.21
0.93 0.86 0.81 1.02 1.56 1.95 1.53 1.90 2.01 2.62 3.48 3.63 3.49 3.50 3.23 3.13 2.70 2.57 2.39 2.17 2.07 1.94
1.55 1.82 1.72 1.67 2.11 2.35 2.00 2.14 2.81 2.72 2.78 3.20 3.21 3.74 3.85 3.41 3.14 2.91 2.63 2.26 2.04 1.69
1.36 1.92 2.43 2.66 2.79 3.42 3.79 3.13 3.23 3.13 2.49 2.29 2.33 2.61 3.48 3.36 2.81 2.63 2.33 1.96 1.78 1.67
2.11 2.04 2.31 2.38 2.37 2.55 3.00 2.71 3.00 2.94 2.75 2.40 2.24 2.34 2.40 3.05 3.04 2.38 2.18 2.05 1.91 1.76
1.53 1.94 2.18 2.46 2.66 3.20 3.14 3.29 3.44 3.66 2.64 2.16 2.00 1.82 1.72 1.75 2.25 2.55 2.16 2.20 2.22 2.05
1.12 1.35 1.40 1.55 1.84 2.09 2.52 2.92 3.42 3.58 3.11 2.36 2.18 2.04 1.74 1.60 1.56 1.95 2.38 2.27 2.18 2.17
0.91 0.96 1.07 1.07 1.17 1.18 1.26 1.31 1.63 2.24 2.93 2.92 2.37 2.60 2.29 1.94 1.73 1.73 2.02 2.71 2.53 2.17
0.78 0.90 0.76 0.75 0.79 0.81 0.93 1.20 1.20 1.16 1.46 2.03 2.18 3.03 2.97 2.89 1.87 1.82 1.88 1.99 2.61 2.49
0.63 0.49 0.49 0.51 0.65 0.69 0.87 0.92 0.94 1.07 1.05 1.17 1.40 2.02 2.31 3.41 3.19 2.19 1.95 2.11 2.05 2.32
0.73 0.79 0.85 0.65 0.62 0.62 0.72 0.84 0.81 0.73 0.73 0.76 0.73 1.10 1.37 1.81 2.34 2.80 2.71 2.00 1.90 1.92
1.18 1.06 0.95 0.82 0.71 0.69 0.62 0.67 0.67 0.83 0.98 1.02 0.69 1.03 1.05 1.55 1.70 1.84 2.14 2.76 2.23 2.26
1.30 1.28 1.13 0.86 0.62 0.59 0.72 0.83 0.87 0.85 0.84 0.82 0.89 1.03 1.21 1.25 1.49 2.03 1.91 1.71 1.95 1.89

GFSNIL_prec_precacc_243.txt.gz
Total_Precipitation_Accumulation
0.41 0.35 0.37 0.43 0.54 0.51 0.92 1.53 2.11 1.75 1.61 1.83 1.68 2.12 2.34 2.31 2.45 2.46 2.38 2.30 2.06 1.89
0.74 0.68 0.71 0.92 1.07 1.14 1.34 1.73 2.63 3.32 3.03 2.88 3.02 2.59 2.75 2.90 2.70 2.70 2.55 2.10 2.29 2.21
0.93 0.86 0.84 1.02 1.56 1.95 1.54 1.90 2.01 2.62 3.48 3.64 3.49 3.50 3.25 3.18 2.73 2.59 2.39 2.17 2.07 1.94
1.58 1.83 1.80 1.68 2.12 2.38 2.05 2.18 2.83 2.72 2.78 3.20 3.21 3.74 3.85 3.41 3.15 2.91 2.63 2.26 2.04 1.69
1.45 2.03 2.50 2.69 2.82 3.51 3.88 3.24 3.31 3.15 2.50 2.34 2.36 2.66 3.50 3.37 2.82 2.63 2.33 1.96 1.78 1.67
2.27 2.15 2.36 2.40 2.40 2.69 3.10 2.81 3.06 2.95 2.77 2.49 2.33 2.42 2.44 3.06 3.04 2.38 2.18 2.05 1.91 1.76
1.55 1.95 2.19 2.47 2.70 3.33 3.31 3.42 3.56 3.78 2.73 2.26 2.10 1.87 1.75 1.77 2.25 2.55 2.16 2.20 2.22 2.05
1.18 1.40 1.44 1.58 1.90 2.19 2.63 3.00 3.49 3.66 3.19 2.43 2.25 2.10 1.77 1.61 1.56 1.95 2.38 2.27 2.18 2.17
0.94 1.03 1.16 1.13 1.26 1.25 1.33 1.37 1.73 2.31 2.98 2.96 2.40 2.63 2.31 1.95 1.73 1.73 2.02 2.71 2.53 2.17
0.80 0.92 0.79 0.79 0.83 0.84 0.95 1.25 1.28 1.27 1.53 2.09 2.20 3.04 2.97 2.89 1.87 1.82 1.88 1.99 2.61 2.49
0.66 0.52 0.51 0.52 0.66 0.70 0.88 0.94 0.96 1.10 1.08 1.18 1.41 2.03 2.31 3.41 3.19 2.19 1.95 2.11 2.05 2.32
0.75 0.82 0.90 0.70 0.64 0.63 0.73 0.86 0.84 0.77 0.78 0.77 0.73 1.10 1.37 1.81 2.34 2.80 2.71 2.00 1.90 1.92
1.19 1.07 0.98 0.85 0.73 0.71 0.63 0.68 0.70 0.85 0.99 1.03 0.69 1.03 1.05 1.55 1.70 1.84 2.14 2.76 2.23 2.26
1.31 1.29 1.14 0.87 0.64 0.61 0.74 0.85 0.89 0.86 0.84 0.82 0.89 1.03 1.21 1.25 1.49 2.03 1.91 1.71 1.95 1.89